Home > Weather > Ahaus > Past weeks

Flag for Germany Past Weather in Ahaus, North Rhine-Westphalia, Germany — Yesterday and Last 2 Weeks

Now
65 °F

Overcast.


Feels Like: 65 °F
Forecast: 54 / 66 °F
Wind: 1 mph from South

Location: Twenthe

Current Time: Jul 30, 2016 at 7:04:05 PM

Latest Report: Jul 30, 2016 at 5:00 PM


Visibility: 11 mi

Pressure: 29.92 "Hg

Humidity: 89%

Dew Point: 62 °F

Location of AhausLocation

Past Weather in Ahaus — Graph

°F

Ahaus Temperature Yesterday

Maximum temperature yesterday: 75 °F (at 4:00 PM)
Minimum temperature yesterday: 61 °F (at 6:00 AM)
Average temperature yesterday: 67 °F

High & Low Weather Summary for the Past Weeks

 TemperatureHumidityPressure
High92 °F (Jul 20, 4:00 PM)100% (Jul 18, 2:00 AM)30.26 "Hg (Jul 18, 2:00 AM)
Low51 °F (Jul 19, 5:00 AM)23% (Jul 19, 4:00 PM)29.83 "Hg (Jul 20, 7:00 PM)
Average68 °F80%30.06 "Hg
* Reported Jul 15 5:00 PM — Jul 30 5:00 PM, Ahaus, Weather by CustomWeather, © 2016

Note: Actual official high and low records may vary slightly from our data, if they occured in-between our weather recording intervals... More about our weather records

Advertising

Ahaus Weather History for the Previous 24 Hours

Scroll right to see more
 ConditionsComfort  
Time TempWeatherWind HumidityBarometerVisibility
5:00 PM
Sat, Jul 30
65 °FOvercast.1 mph89%29.92 "Hg11 mi
4:00 PM65 °FOvercast.1 mph90%29.91 "Hg18 mi
3:00 PM63 °FRain showers. Overcast.3 mph92%29.92 "Hg11 mi
2:00 PM69 °FOvercast.5 mph76%29.91 "Hg14 mi
1:00 PM66 °FOvercast.6 mph82%29.90 "Hg7 mi
12:00 PM67 °FLow clouds.3 mph85%29.90 "Hg6 mi
11:00 AM62 °FDrizzle. Low clouds.3 mph96%29.90 "Hg2 mi
10:00 AM62 °FLow clouds.5 mph91%29.89 "Hg7 mi
9:00 AM61 °FOvercast.5 mph87%29.88 "Hg15 mi
8:00 AM60 °FOvercast.5 mph89%29.87 "Hg13 mi
7:00 AM60 °FOvercast.3 mph91%29.87 "Hg11 mi
6:00 AM58 °FSunny.3 mph93%29.87 "Hg9 mi
5:00 AM59 °FPassing clouds.3 mph94%29.86 "Hg7 mi
4:00 AM60 °FPassing clouds.3 mph94%29.86 "Hg7 mi
3:00 AM62 °FOvercast.3 mph89%29.87 "Hg11 mi
2:00 AM62 °FOvercast.3 mph88%29.87 "Hg14 mi
1:00 AM63 °FOvercast.3 mph85%29.88 "Hg17 mi
12:00 AM65 °FOvercast.3 mph81%29.88 "Hg22 mi
11:00 PM
Fri, Jul 29
65 °FOvercast.3 mph80%29.88 "Hg25 mi
10:00 PM65 °FOvercast.3 mph77%29.87 "Hg8 mi
9:00 PM66 °FOvercast.5 mph72%29.86 "Hg28 mi
8:00 PM69 °FOvercast.7 mph70%29.85 "Hg22 mi
7:00 PM70 °FOvercast.6 mph69%29.85 "Hg19 mi
Weather by CustomWeather, © 2016

See weather overviewHow to use our weather pages